Location: Sindelfingen
(48.7000°N, 9.0167°E)
Time: 19:50:39
(UTC+00:00)

Daily predictions for brighter satellites

Satellite Brightness Start Highest point End
(mag) Time Altitude Azimuth Time Altitude Azimuth Time Altitude Azimuth
ATLAS 5 CENTAUR R/B 2.2 16:08:41 10° NW 16:13:00 70° SW 16:18:23 10° SSE
Cosmos 1844 Rocket 4.4 16:12:28 10° WSW 16:17:08 27° NW 16:21:51 10° NNE
Cosmos 2344 4.3 16:10:58 10° NW 16:17:50 36° NNE 16:26:12 10° E
Cosmos 1802 Rocket 4.3 16:11:31 10° S 16:17:58 82° W 16:24:25 10° N
Cosmos 1025 Rocket 4.4 16:15:20 10° NNW 16:19:25 43° W 16:23:28 10° SSW
Iridium 4 Rocket 3.7 16:14:36 10° S 16:19:35 69° W 16:24:11 10° N
SAR-Lupe-4 4.0 16:16:47 10° SE 16:20:09 39° ENE 16:23:31 10° N
ISS -3.2 16:24:41 10° SW 16:27:56 48° SSE 16:30:57 12° ENE
CZ-2D R/B 3.2 16:26:28 10° SE 16:29:25 37° ENE 16:32:22 10° N
COSMOS 2406 4.2 16:25:23 10° NNW 16:30:09 27° NE 16:34:54 10° ESE
Cosmos 1833 Rocket 3.5 16:24:43 10° NW 16:30:15 57° WSW 16:35:45 10° S
Cosmos 407 Rocket 3.8 16:25:39 10° S 16:30:35 46° ESE 16:35:29 10° NNE
Cosmos 1484 Rocket 3.6 16:28:10 10° S 16:31:35 49° W 16:35:02 10° NNW
Cosmos 2016 Rocket 4.3 16:25:34 10° SSW 16:31:52 77° W 16:38:17 10° N
Cosmos 1812 3.4 16:30:23 10° SE 16:32:33 19° E 16:34:33 11° NE
IRS-P3 4.4 16:29:32 10° SE 16:34:36 46° ENE 16:39:41 10° N
TIMED 4.4 16:30:30 10° SSW 16:34:45 77° ESE 16:39:02 10° NNE
Tsikada Rocket 4.2 16:29:06 10° N 16:35:33 85° W 16:41:54 10° S
Cosmos 2084 Rocket 4.3 16:35:46 10° WSW 16:39:48 45° NW 16:43:51 10° NE
SMAP 3.0 16:37:03 10° SSE 16:41:42 83° ENE 16:46:24 10° NNW
Cosmos 44 Rocket 3.7 16:38:59 10° S 16:43:29 43° ESE 16:47:37 13° NE
Cosmos 540 Rocket 3.4 16:39:42 10° NNW 16:44:51 71° ENE 16:49:56 10° SSE
SJ 16-02 2.6 16:42:31 10° SSE 16:45:46 21° E 16:47:54 15° ENE
SPOT 1/Viking Rocket 4.1 16:41:51 10° SE 16:46:31 36° ENE 16:51:13 10° N
Cosmos 1869 3.0 16:44:03 10° S 16:47:29 56° E 16:50:56 10° NNE
YAOGAN 1 3.6 16:45:01 10° ESE 16:48:24 24° ENE 16:51:48 10° N
IGS 5A 4.3 16:45:02 10° S 16:48:54 52° W 16:52:49 10° NNW
SL-16 R/B 3.2 16:46:34 10° N 16:52:43 60° WNW 16:58:49 10° SW
Cosmos 1763 Rocket 3.5 16:48:03 10° NNW 16:53:18 86° WSW 16:58:26 10° SSE
Landsat 7 3.7 16:49:13 10° SSE 16:53:52 80° ENE 16:58:32 10° NNW
Spot 4 Rocket 4.5 16:52:49 10° SE 16:57:28 37° ENE 17:02:09 10° N
Nadezhda 4 Rocket 4.3 16:52:38 10° N 16:58:38 44° ENE 17:04:32 10° SE
Timation 1 Rocket 4.4 16:53:01 10° NNW 16:59:02 87° WSW 17:05:00 10° SSE
RESURS DK-1 2.5 16:55:02 10° NNW 16:59:02 74° WSW 17:03:00 10° SSE
Cosmos 1140 Rocket 4.1 16:54:34 10° SW 16:59:39 57° WNW 17:04:45 10° NNE
Aureole 3 Rocket 2.4 16:57:36 10° S 17:00:30 47° E 17:03:41 10° NNE
CZ-4C R/B 3.7 16:57:51 10° WNW 17:01:56 24° NNW 17:06:53 10° NE
Resurs 1-3 4.3 16:58:55 10° SE 17:02:39 30° ENE 17:06:24 10° N
CZ-4 R/B 4.5 17:01:56 10° SE 17:05:45 48° ENE 17:09:36 10° N
UNK 4.1 17:01:12 10° N 17:05:47 67° WNW 17:10:21 10° SSW
SJ-6F 4.2 17:01:54 10° SSE 17:05:47 77° ENE 17:09:44 10° N
Cosmos 1400 Rocket 3.3 17:06:32 10° SSE 17:09:57 32° E 17:11:07 26° ENE
SJ-12 4.1 17:06:31 10° S 17:10:17 67° WSW 17:14:05 10° NNW
Cosmos 371 Rocket 4.1 17:06:09 10° SSE 17:10:18 30° ESE 17:12:04 23° ENE
Cosmos 1536 Rocket 3.7 17:07:56 10° N 17:12:16 50° ENE 17:16:32 10° SSE
SAR-Lupe-3 3.9 17:13:47 17° N 17:15:41 70° WNW 17:18:17 10° SSW
Helios 1A Rocket 3.7 17:16:48 24° ESE 17:16:48 24° ESE 17:18:52 10° SSE
Okean 2 Rocket 3.5 17:13:12 10° SSE 17:17:17 39° E 17:20:03 18° NNE
Cosmos 489 Rocket 4.4 17:12:54 10° NNW 17:19:07 62° ENE 17:25:16 10° SE
NOAA 6 4.3 17:20:49 10° SE 17:25:38 42° ENE 17:30:28 10° N
SL-12 R/B(2) 4.4 17:18:43 10° SW 17:26:46 87° NW 17:35:47 13° NE
Geosat 4.5 17:25:22 28° E 17:27:12 39° NE 17:31:49 10° NNW
COSMO-SKYMED 1 2.8 17:26:49 34° ENE 17:27:53 41° E 17:31:47 10° S
Resurs 01 Rocket 3.3 17:30:11 18° NNE 17:30:11 18° NNE 17:31:46 10° N
Cosmos 1943 Rocket 2.3 17:24:33 10° SW 17:30:10 73° WNW 17:35:17 13° NNE
Timation 2 Rocket 4.4 17:24:41 10° SW 17:31:34 74° WNW 17:38:22 10° NNE
Cosmos 2251 Rocket 3.4 17:28:47 10° SSW 17:34:05 86° ESE 17:38:36 15° NNE
Cosmos 841 Rocket 3.5 17:28:51 10° NNW 17:34:05 61° ENE 17:38:54 12° SE
Cosmos 2058 3.0 17:30:15 10° NNW 17:34:13 70° W 17:38:09 10° S
SJ-7 4.0 17:32:11 10° SSE 17:35:50 68° ENE 17:39:30 10° N
BREEZE-M DEB (TANK) 2.4 17:35:13 10° WSW 17:37:55 85° SSE 17:39:49 37° E
Cosmos 2082 Rocket 2.4 17:33:40 10° NNW 17:39:16 71° WSW 17:44:50 10° SSE
ATLAS 2AS CENTAUR R/B 3.1 17:33:41 10° NW 17:40:06 41° NNE 17:42:14 33° ENE
Cosmos 1346 Rocket 4.3 17:37:17 10° N 17:38:39 20° N 17:38:39 20° N
IRAS Rocket 4.1 17:37:18 10° SSE 17:42:52 84° ENE 17:48:25 10° NNW
Cosmos 2278 Rocket 2.6 17:38:05 10° SW 17:43:42 63° WNW 17:48:32 14° NNE
MOS 1 Rocket 3.9 17:40:56 10° S 17:45:10 54° W 17:49:37 10° NNW
Cosmos 1464 Rocket 4.0 17:43:36 10° S 17:49:54 87° W 17:56:10 10° N
ARIANE 5 R/B 4.4 17:45:53 10° SSW 17:50:16 31° W 17:54:42 10° NNW
Cosmos 1634 Rocket 4.4 17:44:47 10° SSE 17:57:50 - NNE 17:50:01 38° E
CZ-2D R/B 3.8 17:46:47 10° S 17:50:54 66° WSW 17:55:06 10° NNW
Meteor 2-1 Rocket 4.3 17:45:50 10° S 17:51:36 58° E 17:57:27 10° NNE
Cosmos 2369 Rocket 3.9 17:48:36 10° SSE 17:50:08 17° SE 17:50:08 17° SE
USA 215 4.3 17:47:59 10° SSE 17:54:07 42° SW 18:00:18 10° WNW
Cosmos 1862 3.9 17:53:04 10° NNW 17:56:35 49° W 18:00:06 10° S
PSLV R/B 3.4 17:52:38 10° SSE 17:56:41 80° WSW 18:00:44 10° NNW
Cosmos 2151 Rocket 4.1 17:56:06 10° SSW 18:00:32 61° WNW 18:05:02 10° N
Cosmos 1190 Rocket 4.3 17:56:40 10° SSW 18:01:56 68° WNW 18:05:26 21° NNE
Cosmos 2034 Rocket 3.9 17:57:38 10° S 18:03:50 82° E 18:10:09 10° N
ISS -2.6 18:01:24 10° W 18:03:52 41° WNW 18:03:52 41° WNW
Cosmos 676 Rocket 3.9 17:59:41 10° SSW 18:04:59 84° ESE 18:06:42 44° NNE
Okean 1 Rocket 3.1 18:02:47 10° SSW 18:07:11 79° W 18:08:25 47° N
SKYMED 2 4.2 18:03:51 15° N 18:07:23 55° WNW 18:11:37 10° SSW
Cosmos 1656 Rocket 3.6 18:02:12 10° SSW 18:07:40 62° ESE 18:08:00 61° E
USA 281 3.3 18:11:29 50° ENE 18:12:07 51° NE 18:18:27 10° NNW
Sich 1 Rocket 3.8 18:08:26 10° SSW 18:12:57 70° W 18:14:56 33° N
Cosmos 1954 Rocket 4.3 18:09:08 10° SSW 18:14:22 65° WNW 18:16:53 30° N
COSMOS 2406 3.4 18:09:17 10° NNW 18:14:57 69° WSW 18:19:01 19° SSE
Cosmos 1932 4.4 18:08:47 10° SSW 18:15:06 72° ESE 18:16:22 57° ENE
Cosmos 1092 Rocket 3.8 18:10:27 10° N 18:16:44 80° E 18:22:56 10° SSE
BlueWalker 3 4.2 18:14:48 10° SSW 18:15:40 16° SSW 18:15:40 16° SSW
Cosmos 2026 Rocket 3.9 18:15:37 10° N 18:21:45 85° W 18:27:53 10° S
SJ 16-02 2.3 18:19:28 10° SW 18:23:36 44° WNW 18:24:29 39° NNW
YAOGAN 1 3.8 18:20:02 10° S 18:24:03 41° W 18:28:06 10° NNW
Cosmos 2344 3.9 18:25:14 10° NW 18:33:12 87° SW 18:38:34 33° SE
Cosmos 2297 Rocket 4.5 18:32:34 10° N 18:33:09 11° N 18:33:09 11° N
Meteor 2-3 Rocket 4.3 18:32:02 10° NNW 18:37:37 57° W 18:43:07 10° S
Cosmos 371 Rocket 4.5 18:45:54 10° SW 18:50:24 39° WNW 18:50:35 38° NW
CZ-4C R/B 4.1 18:47:52 10° NW 18:51:49 21° N 18:51:49 21° N
Resurs 01 Rocket 4.2 19:07:36 15° NNW 19:07:36 15° NNW 19:08:31 10° NNW
Cosmos 1943 Rocket 4.4 19:11:07 10° W 19:14:54 18° NW 19:16:48 16° NNW
ATLAS 2AS CENTAUR R/B 3.4 19:24:39 10° NW 19:29:41 49° WNW 19:29:41 49° WNW
